Tracking 28790 objects as of 18-Apr-2024
HD Live streaming from Space Station
objects crossing your sky now

FENGYUN 1C DEB

Track FENGYUN 1C DEB now!
10-day predictions


NORAD ID: 29868
Int'l Code: 1999-025FN
Perigee: 515.4 km
Apogee: 850.0 km
Inclination: 98.0 °
Period: 98.3 minutes
Semi major axis: 7053 km
RCS: 0.022 m2 (small)
Launch date: May 10, 1999
Source: People's Republic of China (PRC)
Launch site: Taiyaun Space Center, China (TSC)

Note: This is SATELLITE DEBRIS
Your satellite tracking list
Your tracking list is empty




NASA's NSSDC Master Catalog

Two Line Element Set (TLE):
1 29868U 99025FN  24109.61698233  .00014419  00000-0  17560-2 0  9992
2 29868  98.0311 158.7665 0237215 134.7799 354.7264 14.65476152914191
Source of the keplerian elements: AFSPC